[[{"header":{"parameterUnit":"m.s-1","parameterCategory":1,"la1":30.2991,"la2":30.254,"lo1":-89.0895,"lo2":-89.0444,"dy":0.0017,"dx":0.0017,"nx":28,"ny":28,"refTime":"2024-07-29T09:00:00:Z","depth":0,"parameterNumber":2,"parameterNumberName":"U-component_of_WINDS"},"data":[0,0,0,0,0,0,0,0,0,0,0,0,0,0,0,0,0,0,0,0,0,0,0,0,0,0,0,0,0,0,0,0,0,0,0,0,0,0,0,0,0,0,0,0,0,0,0,0,0,0,0,0,0,0,0,0,0,0,2.2089,2.2089,0,2.2153,2.2153,2.2154,2.2144,2.2143,2.2142,2.2141,2.2214,2.2217,2.222,0,0,0,0,0,0,0,0,0,0,0,0,0,2.1965,2.1968,2.2089,2.2089,2.209,2.2152,2.2153,2.2154,2.2144,2.2143,2.2142,2.214,2.2213,2.2217,2.222,0,0,0,0,0,0,0,0,0,0,0,0,0,2.2023,2.1968,2.2089,2.2093,2.2094,2.2152,2.2153,2.2154,2.2145,2.2143,2.2141,2.214,2.2212,2.2216,2.2221,2.2282,0,0,2.2234,2.2236,0,0,0,0,0,0,0,0,2.202,2.2028,2.2091,2.2092,2.2094,2.2138,2.2137,2.2197,2.2145,2.2125,2.2141,2.2139,2.2191,2.2197,2.2213,2.2285,2.2288,2.2235,2.2238,2.2239,2.2241,0,0,0,0,0,0,0,2.2016,2.2025,2.2114,2.2092,2.2094,2.2094,2.21,2.2148,2.2167,2.2127,2.2126,2.2134,2.2191,2.2209,2.2214,2.2289,2.2235,2.2239,2.2241,2.2243,2.2417,2.2419,0,0,0,0,0,0,2.201,2.2022,2.2112,2.2116,2.2052,2.2097,2.2104,2.2126,2.2166,2.2171,2.2135,2.2133,2.2202,2.2209,2.2217,2.2292,2.2239,2.2244,2.2246,2.2415,2.2417,2.2419,0,0,0,0,0,0,2.2007,2.2018,2.211,2.2069,2.208,2.2101,2.2125,2.2128,2.2145,2.2172,2.2176,2.2149,2.2201,2.2211,2.2266,2.2295,2.2246,2.225,2.2413,2.2416,2.2418,2.2443,0,0,0,0,0,0,2.2004,2.2017,2.2039,2.2069,2.2083,2.2155,2.2127,2.2131,2.2152,2.215,2.2186,2.2191,2.22,2.2259,2.227,2.23,2.2253,2.241,2.2414,2.2418,2.244,2.2446,2.2452,0,0,0,0,0,2.1999,2.2045,2.204,2.2051,2.211,2.2157,2.2164,2.2172,2.2154,2.2178,2.2195,2.219,2.2289,2.2265,2.2277,2.2309,2.2409,2.2413,2.2417,2.2437,2.2445,2.2452,0,0,0,0,0,0,2.202,2.2049,2.2044,2.21,2.2125,2.2155,2.2184,2.218,2.2213,2.221,2.2221,2.2229,2.2285,2.2302,2.2274,2.2371,2.2347,2.2354,2.2358,2.2366,2.2372,2.2367,2.2257,0,0,0,0,0,2.203,2.2063,2.2088,2.2135,2.2148,2.2164,2.2184,2.2188,2.2216,2.2228,2.2249,2.2279,2.2317,2.2342,2.2378,2.2441,2.2451,2.247,2.2476,2.2481,2.2488,2.2524,2.2533,2.2434,2.2434,2.2434,0,0,2.2054,2.2073,2.2094,2.214,2.216,2.2196,2.2173,2.2213,2.2241,2.2234,2.2287,2.2304,2.2338,2.2397,2.2425,2.2414,2.2517,2.2486,2.249,2.2494,2.2529,2.2539,2.2547,2.2437,2.2436,2.2436,0,0,2.2115,2.2132,2.2173,2.2194,2.2224,2.2234,2.2244,2.2274,2.2284,2.2336,2.2332,2.2367,2.2432,2.2457,2.2478,2.2547,2.2545,2.2559,2.2592,2.2628,2.2635,2.2642,2.2669,2.2678,2.2565,2.2565,2.2565,0,2.214,2.2193,2.2196,2.2236,2.2257,2.225,2.2294,2.2314,2.2356,2.2372,2.2358,2.2439,2.2461,2.2527,2.2544,2.2561,2.2574,2.2556,2.2633,2.2641,2.2647,2.2673,2.2683,2.2567,2.2567,2.2567,2.2567,0,2.2224,2.226,2.2291,2.2328,2.2353,2.2395,2.2406,2.2431,2.2432,2.2445,2.2499,2.2525,2.2567,2.2583,2.2585,2.265,2.2642,2.2631,2.2607,2.2658,2.2683,2.2692,2.257,2.2569,2.2568,2.2568,0,0,2.2301,2.2339,2.235,2.2368,2.24,2.243,2.2472,2.251,2.2532,2.2561,2.2598,2.2653,2.2642,2.2666,2.2672,2.2702,2.2758,2.2687,2.2688,2.2701,2.2833,2.2842,2.2853,2.2755,2.2757,2.2758,2.283,0,2.2367,2.2438,2.2442,2.2509,2.2544,2.2537,2.2574,2.26,2.2612,2.2646,2.2661,2.27,2.2682,2.2696,2.2726,2.2745,2.2785,2.2739,2.2793,2.2794,2.2786,2.2866,2.2876,2.2942,2.284,2.2841,2.2842,0,2.2453,2.2482,2.2551,2.2578,2.2593,2.2626,2.2662,2.2693,2.2723,2.273,2.2756,2.2756,2.2802,2.2775,2.284,2.2809,2.2831,2.2843,2.2846,2.2853,2.2823,2.2877,2.2964,2.2974,2.2857,2.2856,2.2855,0,2.2505,2.2561,2.261,2.2625,2.2658,2.2681,2.2696,2.2724,2.2747,2.2779,2.2794,2.2832,2.2854,2.2884,2.2896,2.2875,2.2961,2.2935,2.2971,2.297,2.2991,2.299,2.3084,2.3002,2.3001,2.3001,2.3001,0,2.2579,2.2622,2.2633,2.2664,2.2712,2.2717,2.2766,2.278,2.2804,2.2839,2.2836,2.287,2.2882,2.2918,2.2928,2.2981,2.299,2.2999,2.3002,2.3001,2.3,2.3017,2.3013,2.3004,2.3003,2.3003,2.3002,0,2.2646,2.2655,2.2708,2.2734,2.2741,2.2776,2.28,2.283,2.2841,2.2886,2.2896,2.2915,2.2958,2.2971,2.3023,2.303,2.3092,2.309,2.3082,2.3083,2.3119,2.3116,2.3229,2.3245,2.315,2.3151,2.3152,0,2.2693,2.2726,2.2754,2.2776,2.2792,2.2827,2.285,2.2856,2.2881,2.2916,2.2943,2.2984,2.3017,2.3085,2.3106,2.3145,2.3145,2.3182,2.3152,2.315,2.3148,2.3147,2.3151,2.3189,2.319,2.3191,2.3191,0,2.2777,2.278,2.2811,2.2845,2.2871,2.2899,2.2925,2.2944,2.2955,2.2983,2.3024,2.305,2.3101,2.3143,2.3184,2.3202,2.32,2.32,2.3211,2.3211,2.3206,2.3211,2.3099,2.3198,2.3198,2.3197,2.3197,2.3196,2.2837,2.2866,2.289,2.2926,2.2946,2.2971,2.3,2.3015,2.3048,2.3089,2.3092,2.3137,2.3167,2.322,2.3241,2.3278,2.3268,2.3283,2.3288,2.3292,2.3295,2.3198,2.3286,2.3285,2.3285,2.3285,2.3285,0,2.2922,2.2937,2.297,2.3006,2.3034,2.3025,2.3054,2.308,2.3119,2.3145,2.3177,2.3226,2.3266,2.3289,2.333,2.3355,2.3355,2.3366,2.3365,2.337,2.3301,2.3288,2.3366,2.3365,2.3365,2.3365,2.3365,2.3365,2.297,2.3019,2.3024,2.3084,2.3099,2.3141,2.3159,2.3183,2.3203,2.3257,2.3289,2.3302,2.3328,2.3371,2.3408,2.3414,2.343,2.3442,2.3447,2.3383,2.3375,2.3367,2.3355,2.3445,2.3445,2.3513,2.3514,2.3515]},{"header":{"parameterUnit":"m.s-1","parameterCategory":1,"la1":30.2991,"la2":30.254,"lo1":-89.0895,"lo2":-89.0444,"dy":0.0017,"dx":0.0017,"nx":28,"ny":28,"refTime":"2024-07-29T09:00:00:Z","depth":0,"parameterNumber":3,"parameterNumberName":"V-component_of_WINDS"},"data":[0,0,0,0,0,0,0,0,0,0,0,0,0,0,0,0,0,0,0,0,0,0,0,0,0,0,0,0,0,0,0,0,0,0,0,0,0,0,0,0,0,0,0,0,0,0,0,0,0,0,0,0,0,0,0,0,0,0,2.0197,2.0196,0,2.0124,2.0123,2.0122,2.007,2.007,2.007,2.0069,1.9993,1.9991,1.999,0,0,0,0,0,0,0,0,0,0,0,0,0,2.0287,2.0286,2.0197,2.0196,2.0195,2.0124,2.0123,2.0122,2.0071,2.007,2.0069,2.0069,1.9994,1.9992,1.999,0,0,0,0,0,0,0,0,0,0,0,0,0,2.0234,2.0285,2.0197,2.0161,2.0157,2.0124,2.0123,2.0122,2.0071,2.007,2.0069,2.0069,1.9994,1.9992,1.9989,1.9987,0,0,1.9982,1.9981,0,0,0,0,0,0,0,0,2.0238,2.0231,2.0167,2.0163,2.0159,2.0106,2.0127,2.0077,2.0071,2.0103,2.0069,2.0068,2.0031,2.0025,2.0013,1.9983,1.998,1.9982,1.998,1.9979,1.9978,0,0,0,0,0,0,0,2.0241,2.0234,2.0168,2.0166,2.0161,2.0147,2.0139,2.0117,2.0071,2.01,2.0096,2.0089,2.0028,2.0016,2.0011,1.9979,1.9982,1.998,1.9978,1.9977,1.9939,1.9939,0,0,0,0,0,0,2.0251,2.0237,2.017,2.0166,2.0197,2.0146,2.0137,2.0123,2.0072,2.0063,2.0089,2.0086,2.002,2.0014,2.0008,1.9999,1.9979,1.9977,1.9975,1.9938,1.9939,1.994,0,0,0,0,0,0,2.0253,2.0245,2.0173,2.02,2.019,2.0145,2.013,2.0122,2.0109,2.0063,2.0054,2.0085,2.0019,2.0011,1.9992,1.9996,1.9976,1.9973,1.9938,1.9939,1.9939,1.9983,0,0,0,0,0,0,2.0256,2.0247,2.0246,2.0201,2.0189,2.016,2.0131,2.0121,2.0105,2.0101,2.0057,2.0049,2.0018,1.9996,1.9989,1.9992,1.9972,1.9937,1.9938,1.9939,1.9981,1.9985,1.9988,0,0,0,0,0,2.0259,2.0262,2.0247,2.0239,2.0188,2.016,2.0153,2.0119,2.0106,2.0104,2.0074,2.005,1.9996,1.9994,1.9986,1.9988,1.9937,1.9938,1.9939,1.9979,1.9984,1.9988,0,0,0,0,0,0,2.0309,2.0255,2.0238,2.0226,2.0198,2.0151,2.0148,2.0125,2.01,2.0097,2.0055,2.0045,2.0029,2.0007,2.0005,1.9981,1.9963,1.9963,1.9996,2.0001,2.0004,2.001,1.997,0,0,0,0,0,2.0318,2.0301,2.0255,2.0248,2.0235,2.0194,2.0181,2.0157,2.0126,2.0113,2.0082,2.0052,2.0028,2.0013,1.9989,1.9977,1.9965,1.9974,1.9978,1.9982,1.9981,1.997,1.9973,1.9943,1.9943,1.9943,0,0,2.0338,2.0306,2.0298,2.0258,2.0233,2.0214,2.0185,2.0167,2.0152,2.0111,2.0089,2.0065,2.0029,2.0012,2.0003,1.9993,1.9987,1.9983,1.9986,1.9984,1.9971,1.9974,1.9977,1.9944,1.9944,1.9943,0,0,2.0363,2.0339,2.0329,2.0305,2.0268,2.024,2.0238,2.0194,2.0177,2.0155,2.0122,2.0103,2.0064,2.0038,2.002,2.0033,2.0009,2.0026,2.0046,2.0035,2.0038,2.0039,2.0042,2.0043,2.0026,2.0026,2.0026,0,2.0391,2.0363,2.0327,2.0311,2.0293,2.0254,2.0243,2.0221,2.0178,2.0165,2.0155,2.0102,2.0075,2.0051,2.0053,2.0041,2.0035,2.0031,2.004,2.0042,2.0043,2.0044,2.0046,2.0029,2.0028,2.0028,2.0028,0,2.0399,2.038,2.0376,2.0335,2.0317,2.0304,2.0264,2.0249,2.0226,2.0199,2.0175,2.0141,2.0108,2.01,2.0078,2.0071,2.0066,2.0049,2.003,2.0049,2.0049,2.005,2.0032,2.0031,2.003,2.003,0,0,2.0454,2.0392,2.0391,2.0371,2.0326,2.031,2.0293,2.0261,2.0248,2.0219,2.0203,2.0169,2.0151,2.0131,2.0105,2.0096,2.0105,2.0079,2.0077,2.0083,2.0092,2.0105,2.0106,2.0089,2.0089,2.0089,2.0095,0,2.047,2.044,2.0406,2.0386,2.0367,2.0328,2.0314,2.0284,2.0257,2.0235,2.0206,2.0182,2.0162,2.0149,2.0138,2.0106,2.0106,2.0105,2.0071,2.007,2.008,2.0107,2.0121,2.0128,2.0095,2.0095,2.0095,0,2.0486,2.0459,2.0438,2.0392,2.0383,2.0371,2.0336,2.0317,2.0281,2.0262,2.0238,2.021,2.0188,2.0172,2.014,2.0141,2.0124,2.0106,2.0105,2.01,2.0083,2.0101,2.013,2.0131,2.0096,2.0095,2.0095,0,2.0526,2.0483,2.0464,2.0449,2.0396,2.0388,2.0365,2.0329,2.0311,2.0281,2.0268,2.0236,2.0218,2.0192,2.0155,2.0147,2.0126,2.0108,2.0108,2.0109,2.0105,2.0105,2.013,2.0097,2.0097,2.0097,2.0097,0,2.0547,2.0535,2.0481,2.0469,2.0454,2.0414,2.0399,2.0373,2.034,2.0321,2.0286,2.0269,2.0221,2.0198,2.0168,2.0145,2.0137,2.012,2.0112,2.0122,2.0124,2.011,2.0108,2.0097,2.0097,2.0097,2.0097,0,2.0588,2.0552,2.0528,2.048,2.0468,2.0458,2.0416,2.0402,2.0373,2.0349,2.0341,2.0295,2.0265,2.0226,2.0183,2.0163,2.0143,2.0131,2.0155,2.015,2.0152,2.0151,2.0168,2.0167,2.0136,2.0136,2.0136,0,2.0603,2.0593,2.0543,2.0529,2.0507,2.0484,2.0465,2.0425,2.0406,2.0363,2.0353,2.0321,2.0292,2.0246,2.0207,2.0174,2.016,2.0168,2.0155,2.0165,2.0158,2.0159,2.0156,2.0171,2.0172,2.0172,2.0173,0,2.0633,2.0615,2.059,2.0558,2.0536,2.0509,2.048,2.0469,2.0422,2.0403,2.0372,2.035,2.0306,2.0273,2.0234,2.0208,2.0182,2.0177,2.0175,2.0185,2.0198,2.0189,2.0162,2.0177,2.0177,2.0176,2.0176,2.0176,2.066,2.0648,2.0611,2.0584,2.0557,2.053,2.0514,2.0483,2.0457,2.0419,2.0396,2.0365,2.0327,2.0272,2.0248,2.0221,2.0211,2.0209,2.0208,2.0208,2.021,2.0204,2.0214,2.0214,2.0214,2.0214,2.0214,0,2.0686,2.0661,2.0636,2.0596,2.0573,2.0552,2.0518,2.05,2.0473,2.0441,2.0413,2.0376,2.0343,2.0302,2.0266,2.0253,2.0239,2.0244,2.0244,2.0238,2.0222,2.0227,2.0256,2.0256,2.0256,2.0256,2.0256,2.0256,2.0697,2.0676,2.0653,2.0617,2.0591,2.0561,2.0543,2.0517,2.0491,2.0451,2.0424,2.0398,2.0361,2.0321,2.0289,2.0278,2.0265,2.0273,2.0258,2.0244,2.024,2.0236,2.024,2.0272,2.0272,2.0276,2.0276,2.0276]}]]